Location: Martley
(52.2333°N, 2.3667°W)
Time: 05:23:22
(UTC+00:00)

Cosmos 1486 Rocket - Pass Details

Date: 11 December 2019
Orbit: 759 x 783 km, 74.1° (Epoch: 22 January)

Event Time Altitude Azimuth Distance (km) Brightness Sun altitude
Exits shadow 07:05:04 - 332° (NNW) 2,755 6.4 -9.0°
Reaches altitude 10° 07:06:08 10° 331° (NNW) 2,342 6.0 -8.9°
Maximum altitude 07:11:25 67° 250° (WSW) 844 4.1 -8.1°
Drops below altitude 10° 07:16:37 10° 168° (SSE) 2,310 7.1 -7.4°
Sets 07:18:59 0° 166° (SSE) 3,229 7.9 -7.1°
